Zurück zum Katalog

CHINASAT 16

AktivKommunikationGEO
NORAD 42662·PAYLOAD·🇨🇳 China

Gestartet Apr 12, 2017 von Xichang Satellite Launch Center

Loading…

TLE

AktuellSource: Space-Track

Epoche: Sep 14, 2026, 14:19 UTC

1 42662U 17018A   26257.59702777 -.00000361  00000-0  00000-0 0  9994
2 42662   0.0769  91.2776 0006621 133.4325  94.3589  1.00280137 34649

Verfolge CHINASAT 16 in Echtzeit mit AllMySat

Download on the App Store